Terminal Aerodrome Forecast
Issued by NWS

Home | Current Version | Previous Version | Text Only | Print | Product List | Glossary On
Versions: 1 2 3 4 5 6 7 8 9 10 11 12 13 14
000
FTAK31 PAFA 232347
TAFAUN
TAF
PAUN 232347Z 2400/2424 31010KT P6SM OVC100
     FM240900 07004KT P6SM BKN100
     FM241800 29010KT P6SM BKN040=

USA.gov is the U.S. government's official web portal to all federal, state and local government web resources and services.